Location: Recife
(8.0585°S, 34.8848°W)
Time: 11:30:04
(UTC-03:00)

Vanguard 2 Rocket - Pass Details

Date: 16 April 2026
Orbit: 553 x 3286 km, 32.9° (Epoch: 8 May)

Event Time Altitude Azimuth Distance (km) Brightness Sun altitude
Rises 03:54:20 0° 305° (NW) 3,024 - -22.2°
Reaches altitude 10° 03:56:16 10° 306° (NW) 2,271 - -21.8°
Exits shadow 03:58:31 30° 307° (NW) 1,487 7.6 -21.2°
Maximum altitude 04:01:30 86° 34° (NNE) 1,024 7.1 -20.5°
Drops below altitude 10° 04:10:37 10° 123° (ESE) 3,842 10.8 -18.2°
Sets 04:14:50 0° 123° (ESE) 5,299 11.6 -17.2°
